Location: Clermont
(50.2608°N, 4.3172°E)
Time: 21:51:51
(UTC+00:00)

Resurs 01 Rocket - Pass Details

Date: 13 August 2020
Orbit: 635 x 644 km, 98.0° (Epoch: 22 September)

Event Time Altitude Azimuth Distance (km) Brightness Sun altitude
Exits shadow 21:25:22 - 213° (SSW) 2,625 4.6 -18.3°
Reaches altitude 10° 21:27:22 10° 229° (SW) 2,029 4.1 -18.5°
Maximum altitude 21:30:16 17° 270° (W) 1,615 4.1 -18.8°
Drops below altitude 10° 21:33:12 10° 312° (NW) 2,044 5.4 -19.0°
Sets 21:36:08 0° 332° (NNW) 2,961 6.7 -19.3°
